Pensacola, FL

7:08 PM CST on February 27, 2017 (GMT -0600)
Pensacola Regional

Weather History for KPNS - February, 2014

Change the Weather History Date:

Sunday, February 9, 2014

  Actual Average Record
Temperature  
Mean Temperature 55 °F 54 °F  
Max Temperature 68 °F 63 °F 78 °F (1957)
Min Temperature 42 °F 44 °F 17 °F (1933)
Degree Days  
Heating Degree Days 10 12  
Month to date heating degree days 101 111  
Since 1 July heating degree days 1177 1122  
Cooling Degree Days 0 0  
Month to date cooling degree days 0 0  
Year to date cooling degree days 0 6  
Growing Degree Days 5 (Base 50)    
Moisture  
Dew Point 45 °F    
Average Humidity 67    
Maximum Humidity 92    
Minimum Humidity 42    
Precipitation  
Precipitation T in 0.18 in 2.63 in (1973)
Month to date precipitation 0.33 1.59  
Year to date precipitation 3.78 6.22  
Snow  
Snow 0.00 in 0.00 in - ()
Month to date snowfall T 0.0  
Since 1 July snowfall 1.0 0.0  
Snow Depth 0.00 in    
Sea Level Pressure  
Sea Level Pressure 30.14 in    
Wind  
Wind Speed 5 mph (West)    
Max Wind Speed 14 mph    
Max Gust Speed 19 mph    
Visibility 9 miles    
Events      
T = Trace of Precipitation, MM = Missing Value Source: NWS Daily Summary

Daily Weather History Graph

Daily Weather History Graph

Search for Another Location

Airport or City:

Trip Planner

Search our weather history database for the weather conditions in past years. The results will help you decide how hot, cold, wet, or windy it might be!

Date:

Astronomy

Feb. 09, 2014 Rise Set
Actual Time 6:34 AM CST 5:32 PM CST
Civil Twilight 6:09 AM CST 5:56 PM CST
Nautical Twilight 5:40 AM CST 6:25 PM CST
Astronomical Twilight 5:12 AM CST 6:53 PM CST
Moon 1:18 PM CST (2/9) 2:32 AM CST (2/9)
Length of Visible Light 11h 47m
Length of Day
10h 57m
Waxing Gibbous, 77% of the Moon is Illuminated
Feb 9
Waxing Gibbous
Feb 14
Full
Feb 22
Last Quarter
Mar 1
New
Mar 8
First Quarter

Hourly Weather History & Observations

Time (CST) Temp. Windchill Dew Point Humidity Pressure Visibility Wind Dir Wind Speed Gust Speed Precip Events Conditions
12:53 AM 48.0 °F - 44.1 °F 86% 30.15 in 9.0 mi NNW 8.1 mph - N/A   Clear
1:53 AM 46.9 °F - 43.0 °F 86% 30.13 in 9.0 mi NNW 6.9 mph - N/A   Clear
2:53 AM 45.0 °F 40.6 °F 42.1 °F 90% 30.12 in 6.0 mi NNW 8.1 mph - N/A   Clear
3:53 AM 45.0 °F 40.6 °F 42.1 °F 90% 30.14 in 5.0 mi NNW 8.1 mph - N/A   Partly Cloudy
4:53 AM 45.0 °F 41.8 °F 41.0 °F 86% 30.15 in 10.0 mi North 5.8 mph - N/A   Partly Cloudy
5:53 AM 43.0 °F - 39.0 °F 86% 30.16 in 10.0 mi Calm Calm - N/A   Partly Cloudy
6:53 AM 42.1 °F 40.2 °F 39.0 °F 89% 30.17 in 7.0 mi ENE 3.5 mph - N/A   Clear
7:53 AM 51.1 °F - 42.1 °F 71% 30.18 in 10.0 mi Calm Calm - N/A   Clear
8:53 AM 55.9 °F - 41.0 °F 57% 30.20 in 10.0 mi Calm Calm - N/A   Clear
9:53 AM 60.1 °F - 42.1 °F 51% 30.21 in 10.0 mi Calm Calm - N/A   Clear
10:53 AM 64.9 °F - 45.0 °F 48% 30.19 in 10.0 mi Variable 6.9 mph - N/A   Partly Cloudy
11:53 AM 66.9 °F - 45.0 °F 45% 30.17 in 10.0 mi West 6.9 mph - 0.00 in   Partly Cloudy
12:53 PM 68.0 °F - 45.0 °F 43% 30.12 in 10.0 mi NW 5.8 mph - N/A   Partly Cloudy
1:53 PM 68.0 °F - 46.0 °F 45% 30.10 in 10.0 mi South 6.9 mph - N/A   Clear
2:53 PM 66.0 °F - 46.0 °F 48% 30.09 in 10.0 mi South 8.1 mph - N/A   Clear
3:53 PM 64.0 °F - 46.0 °F 52% 30.09 in 10.0 mi South 6.9 mph - N/A   Clear
4:53 PM 61.0 °F - 46.9 °F 60% 30.09 in 10.0 mi South 10.4 mph - N/A   Clear
5:53 PM 57.9 °F - 48.9 °F 72% 30.11 in 10.0 mi SW 6.9 mph - N/A   Clear
6:53 PM 55.9 °F - 48.9 °F 77% 30.12 in 10.0 mi SW 6.9 mph - N/A   Clear
7:53 PM 55.0 °F - 48.9 °F 80% 30.12 in 10.0 mi SW 6.9 mph - N/A   Clear
8:53 PM 55.0 °F - 50.0 °F 83% 30.12 in 10.0 mi WSW 4.6 mph - N/A   Clear
9:53 PM 55.0 °F - 50.0 °F 83% 30.13 in 10.0 mi West 4.6 mph - N/A   Clear
10:53 PM 54.0 °F - 50.0 °F 86% 30.12 in 9.0 mi West 3.5 mph - N/A   Clear
11:53 PM 53.1 °F - 50.0 °F 89% 30.11 in 7.0 mi Calm Calm - N/A   Clear